Flight Track Log - Related Links

Times and Time Zones

All times are in EDT time to prevent confusion due to time zone crossing. See the SWA1707 flight status page for this flight to view local times or setup timezone preferences in your user account.

Time Position Orientation Groundspeed Altitude Reporting Facility
EDT Latitude Longitude Course Direction KTS MPH feet Rate Location/Type
Mon 08:14:10 PM 29.9761 -90.2539 200° South 203 234 400  Level Houston Center
Mon 08:14:59 PM 29.9389 -90.2697 200° South 200 230 2,000 2,160 Climbing Houston Center
Mon 08:16:15 PM 29.9817 -90.3311 309° West 265 305 4,900 2,609 Climbing Houston Center
Mon 08:17:17 PM 30.0525 -90.3592 341° North 266 306 8,000 2,806 Climbing Houston Center
Mon 08:18:19 PM 30.0936 -90.4378 301° West 283 326 10,700 2,177 Climbing Houston Center
Mon 08:19:21 PM 30.1261 -90.5344 291° West 323 372 12,500 2,032 Climbing Houston Center
Mon 08:20:23 PM 30.1825 -90.6272 305° West 361 415 14,900 2,419 Climbing Houston Center
Mon 08:21:25 PM 30.2531 -90.7122 314° West 366 421 17,500 2,419 Climbing Houston Center
Mon 08:22:27 PM 30.3400 -90.8194 313° West 379 436 19,900 2,177 Climbing Houston Center
Mon 08:23:29 PM 30.4144 -90.9100 314° West 387 445 22,000 2,177 Climbing Houston Center
Mon 08:24:31 PM 30.4897 -90.9994 314° West 387 445 24,400 2,049 Climbing Houston Center
Mon 08:25:32 PM 30.5611 -91.0850 314° West 373 429 26,200 1,610 Climbing Houston Center
Mon 08:26:34 PM 30.6347 -91.1719 315° West 378 435 27,700 1,500 Climbing Houston Center
Mon 08:27:36 PM 30.6953 -91.2708 305° West 379 436 29,300 1,113 Climbing Houston Center
Mon 08:28:38 PM 30.7450 -91.3808 298° West 368 423 30,000 339 Climbing Houston Center
Mon 08:29:40 PM 30.7928 -91.4867 298° West 370 426 30,000  Level Houston Center
Mon 08:30:42 PM 30.8536 -91.6167 299° West 381 438 30,000  Level Houston Center
Mon 08:31:44 PM 30.9039 -91.7247 298° West 381 438 30,000  Level Houston Center
Mon 08:32:46 PM 30.9536 -91.8342 298° West 383 441 30,000  Level Houston Center
Mon 08:33:48 PM 31.0028 -91.9425 298° West 380 437 30,000 -48 Level Houston Center
Mon 08:34:50 PM 31.0550 -92.0589 298° West 378 435 29,900 -48 Descending Houston Center
Mon 08:35:52 PM 31.1050 -92.1664 299° West 378 435 29,900 48 Level Houston Center
Mon 08:36:54 PM 31.1536 -92.2736 298° West 377 434 30,000  Climbing Houston Center
Mon 08:37:56 PM 31.2028 -92.3828 298° West 379 436 29,900 -48 Descending Houston Center
Mon 08:38:58 PM 31.2592 -92.5106 297° West 373 429 29,900 49 Level Houston Center
Mon 08:39:59 PM 31.3011 -92.6211 294° West 374 430 30,000 49 Climbing Houston Center
Mon 08:41:01 PM 31.3444 -92.7331 294° West 378 435 30,000 -48 Level Houston Center
Mon 08:42:03 PM 31.3856 -92.8428 294° West 372 428 29,900 -48 Descending Houston Center
Mon 08:43:05 PM 31.4267 -92.9525 294° West 370 426 29,900  Level Houston Center
Mon 08:44:07 PM 31.4686 -93.0617 294° West 369 425 29,900 48 Level Houston Center
Mon 08:45:09 PM 31.5172 -93.1939 293° West 370 426 30,000 48 Climbing Houston Center
Mon 08:46:11 PM 31.5608 -93.3103 294° West 372 428 30,000  Level Houston Center
Mon 08:47:13 PM 31.6031 -93.4231 294° West 377 434 30,000  Level Houston Center
Mon 08:48:06 PM 31.6356 -93.5217 291° West 387 445 30,000  Level Fort Worth Center
Mon 08:49:06 PM 31.6786 -93.6322 295° West 387 445 30,000  Level Fort Worth Center
Mon 08:50:06 PM 31.7175 -93.7503 291° West 392 451 30,000  Level Fort Worth Center
Mon 08:51:06 PM 31.7625 -93.8633 295° West 387 445 30,000  Level Fort Worth Center
Mon 08:52:06 PM 31.8011 -93.9767 292° West 387 445 30,000  Level Fort Worth Center
Mon 08:53:06 PM 31.8397 -94.0900 292° West 387 445 30,000  Level Fort Worth Center
Mon 08:54:06 PM 31.8761 -94.2039 291° West 381 438 30,000  Level Fort Worth Center
Mon 08:55:06 PM 31.9144 -94.3175 292° West 381 438 30,000  Level Fort Worth Center
Mon 08:56:06 PM 31.9506 -94.4289 291° West 375 432 30,000  Level Fort Worth Center
Mon 08:57:06 PM 31.9886 -94.5403 292° West 375 432 30,000  Level Fort Worth Center
Mon 08:58:06 PM 32.0267 -94.6567 291° West 375 432 30,000  Level Fort Worth Center
Mon 08:59:06 PM 32.0625 -94.7708 290° West 375 432 30,000  Level Fort Worth Center
Mon 09:00:06 PM 32.1003 -94.8850 291° West 375 432 30,000  Level Fort Worth Center
Mon 09:01:06 PM 32.1358 -94.9944 291° West 370 426 30,000  Level Fort Worth Center
Mon 09:02:06 PM 32.1736 -95.1111 291° West 370 426 30,000  Level Fort Worth Center
Mon 09:03:06 PM 32.2111 -95.2256 291° West 370 426 30,000 -850 Level Fort Worth Center
Mon 09:04:06 PM 32.2486 -95.3450 290° West 375 432 28,300 -2,200 Descending Fort Worth Center
Mon 09:05:06 PM 32.2861 -95.4647 290° West 380 437 25,600 -2,800 Descending Fort Worth Center
Mon 09:06:06 PM 32.3253 -95.5819 292° West 385 443 22,700 -2,800 Descending Fort Worth Center
Mon 09:07:06 PM 32.3647 -95.7039 291° West 390 449 20,000 -2,650 Descending Fort Worth Center
Mon 09:08:06 PM 32.4039 -95.8289 290° West 395 455 17,400 -2,700 Descending Fort Worth Center
Mon 09:09:06 PM 32.4472 -95.9683 290° West 407 468 14,600 -2,500 Descending Fort Worth Center
Mon 09:10:06 PM 32.4819 -96.0761 291° West 399 459 12,400 -2,100 Descending Fort Worth Center
Mon 09:11:06 PM 32.5228 -96.2011 291° West 384 442 10,400 -1,350 Descending Fort Worth Center
Mon 09:12:06 PM 32.5486 -96.2872 290° West 332 382 9,700 -1,050 Descending Fort Worth Center
Mon 09:13:06 PM 32.5892 -96.3778 298° West 293 337 8,300 -1,550 Descending Fort Worth Center
Mon 09:14:06 PM 32.6292 -96.4489 304° West 287 330 6,600 -1,650 Descending Fort Worth Center
Mon 09:15:06 PM 32.6842 -96.5322 308° West 293 337 5,000 -800 Descending Fort Worth Center
Mon 09:16:06 PM 32.7367 -96.5933 316° Northwest 293 337 5,000  Level Fort Worth Center
Mon 09:17:06 PM 32.7978 -96.6669 315° West 288 331 5,000 -545 Level Fort Worth Center
Mon 09:17:56 PM 32.8500 -96.7167 321° Northwest 277 319 4,000 -545 Descending Dallas / Fort Worth TRACON
Mon 09:18:56 PM 32.9000 -96.7667 320° Northwest 247 284 4,000 45 Level Dallas / Fort Worth TRACON
Mon 09:20:08 PM 32.9500 -96.8333 312° West 232 267 4,100 -550 Climbing Dallas / Fort Worth TRACON
Mon 09:20:56 PM 32.9500 -96.8833 270° West 154 177 2,900 -1,333 Descending Dallas / Fort Worth TRACON
Mon 09:21:56 PM 32.9000 -96.8833 180° South 134 154 1,700 -1,000 Descending Dallas / Fort Worth TRACON
Mon 09:23:02 PM 32.8667 -96.8667 157° South 143 165 800 -818 Descending Dallas / Fort Worth TRACON
Mon 09:29:00 PM 32.8471 -96.8518 157° South  Level Estimated

Login

Don't have an account? Register now (free) for customized features, flight alerts, and more!